Home > Weather > Joensuu > Past weeks

Flag for Finland Past Weather in Joensuu, Finland — Yesterday and Last 2 Weeks

Now
77 °F

Partly sunny.


Feels Like: 78 °F
Forecast: 59 / 72 °F
Wind: 8 mph from West

Location: Joensuu Airport

Current Time: Jul 28, 2016 at 3:30:06 PM

Latest Report: Jul 28, 2016 at 2:50 PM


Visibility: N/A

Pressure: 29.89 "Hg

Humidity: 42%

Dew Point: 52 °F

Location of JoensuuLocation

Past Weather in Joensuu — Graph

°F

Joensuu Temperature Yesterday

Maximum temperature yesterday: 81 °F (at 4:50 PM)
Minimum temperature yesterday: 61 °F (at 3:20 AM)
Average temperature yesterday: 71 °F

High & Low Weather Summary for the Past Weeks

 TemperatureHumidityPressure
High81 °F (Jul 26, 4:50 PM)100% (Jul 14, 1:50 AM)30.12 "Hg (Jul 14, 1:50 AM)
Low52 °F (Jul 15, 3:50 AM)39% (Jul 26, 4:50 PM)29.59 "Hg (Jul 16, 4:50 AM)
Average65 °F78%29.92 "Hg
* Reported Jul 13 2:20 PM — Jul 28 2:20 PM, Joensuu, Weather by CustomWeather, © 2016

Note: Actual official high and low records may vary slightly from our data, if they occured in-between our weather recording intervals... More about our weather records

Advertising

Joensuu Weather History for the Previous 24 Hours

Scroll right to see more
 ConditionsComfort  
Time TempWeatherWind HumidityBarometerVisibility
2:20 PM
Thu, Jul 28
73 °FScattered clouds.7 mph50%29.89 "HgN/A
1:50 PM75 °FPassing clouds.5 mph47%29.89 "HgN/A
1:20 PM77 °FScattered clouds.5 mph44%29.89 "HgN/A
12:50 PM73 °FScattered clouds.3 mph50%29.89 "HgN/A
12:20 PM72 °FPartly sunny.5 mph53%29.89 "HgN/A
11:50 AM73 °FPartly sunny.6 mph57%29.89 "HgN/A
11:20 AM73 °FScattered clouds.5 mph57%29.89 "HgN/A
10:50 AM73 °FScattered clouds.7 mph57%29.89 "HgN/A
10:20 AM73 °FSunny.2 mph61%29.89 "Hg10 mi
9:50 AM72 °FPassing clouds.5 mph69%29.89 "HgN/A
9:20 AM72 °FPassing clouds.5 mph69%29.89 "HgN/A
8:50 AM70 °FPartly sunny.3 mph73%29.89 "HgN/A
8:20 AM72 °FSunny.3 mph61%29.89 "Hg10 mi
7:50 AM70 °FSunny.1 mph69%29.89 "Hg10 mi
7:20 AM68 °FSunny.2 mph78%29.89 "Hg10 mi
6:50 AM66 °FSunny.2 mph83%29.89 "Hg10 mi
6:20 AM64 °FScattered clouds.1 mph88%29.89 "HgN/A
5:50 AM64 °FScattered clouds.2 mph88%29.89 "HgN/A
5:20 AM66 °FPartly sunny.2 mph83%29.89 "HgN/A
4:50 AM64 °FPassing clouds.2 mph94%29.89 "HgN/A
4:20 AM64 °FPartly cloudy.1 mph94%29.89 "HgN/A
3:50 AM64 °FMostly cloudy.3 mph88%29.89 "HgN/A
3:20 AM66 °FOvercast.3 mph83%29.89 "HgN/A
2:50 AM64 °FClear.2 mph88%29.89 "Hg10 mi
2:20 AM63 °FClear.No wind94%29.89 "Hg10 mi
1:50 AM63 °FClear.No wind94%29.89 "Hg10 mi
1:20 AM63 °FClear.No wind94%29.89 "Hg10 mi
12:50 AM63 °FClear.No wind94%29.89 "Hg10 mi
12:20 AM64 °FClear.2 mph88%29.92 "Hg10 mi
11:50 PM
Wed, Jul 27
64 °FClear.No wind88%29.92 "Hg10 mi
11:20 PM64 °FClear.3 mph88%29.92 "Hg10 mi
10:50 PM68 °FSunny.2 mph78%29.89 "Hg10 mi
10:20 PM68 °FSunny.2 mph78%29.89 "Hg10 mi
9:50 PM70 °FSunny.1 mph73%29.89 "Hg10 mi
9:20 PM73 °FSunny.2 mph65%29.89 "Hg10 mi
8:50 PM75 °FSunny.2 mph57%29.89 "Hg10 mi
8:20 PM75 °FSunny.3 mph57%29.89 "Hg10 mi
7:50 PM77 °FPassing clouds.6 mph51%29.89 "HgN/A
7:20 PM79 °FPassing clouds.8 mph48%29.89 "HgN/A
6:50 PM79 °FPassing clouds.8 mph45%29.89 "HgN/A
6:20 PM79 °FPassing clouds.8 mph48%29.89 "HgN/A
5:50 PM79 °FScattered clouds.8 mph48%29.89 "HgN/A
5:20 PM79 °FScattered clouds.9 mph51%29.89 "HgN/A
4:50 PM81 °FScattered clouds.9 mph48%29.89 "HgN/A
4:20 PM79 °FPartly sunny.8 mph51%29.89 "HgN/A
3:50 PM77 °FScattered clouds.7 mph51%29.92 "HgN/A
3:20 PM77 °FPassing clouds.9 mph51%29.92 "HgN/A
Weather by CustomWeather, © 2016

See weather overviewHow to use our weather pages